This demonstration page uses our WeatherBlox Daily Observations layout. Learn more.

Left ArrowRight Arrow

39.08367, -84.50855

Hourly Observations for February 10, 2021

Temp ( °F °C ) Dew Point ( °F °C ) Humidity (%) Winds ( mph kmh ) Pressure ( in mb ) Visibility ( mi km ) Precip ( " mm )
12:53 am 00:53 Cloudy 25 -3.9 18 -7.8 75 75 NNE 6 9 30.38 1029 7 11 0.00 0.00
1:53 am 01:53 Cloudy 24 -4.4 17 -8.3 75 75 NE 10 17 30.36 1028 9 14 0.00 0.00
2:53 am 02:53 Cloudy 24 -4.4 17 -8.3 75 75 NE 7 11 30.37 1028 10 16 0.00 0.00
3:53 am 03:53 Cloudy 24 -4.4 17 -8.3 75 75 NNE 8 13 30.37 1028 10 16 0.00 0.00
4:53 am 04:53 Cloudy 23 -5 15 -9.4 72 72 ENE 8 13 30.36 1028 10 16 0.00 0.00
5:53 am 05:53 Cloudy 22 -5.6 14 -10 71 71 ENE 7 11 30.39 1029 10 16 0.00 0.00
6:53 am 06:53 Cloudy 21 -6.1 12 -11.1 68 68 ENE 9 15 30.38 1029 10 16 0.00 0.00
7:53 am 07:53 Cloudy 20 -6.7 12 -11.1 71 71 NE 10 17 30.37 1029 10 16 0.00 0.00
8:53 am 08:53 Cloudy 20 -6.7 12 -11.1 71 71 NE 9 15 30.38 1029 10 16 0.00 0.00
9:09 am 09:09 Cloudy with Light Snow 20 -6.7 12 -11.1 71 71 NE 12 19 30.41 1030 6 10 0.00 0.00
9:23 am 09:23 Cloudy 20 -6.7 12 -11.1 71 71 NE 7 11 30.42 1030 8 13 0.00 0.00
9:51 am 09:51 Cloudy with Light Snow 19 -7 12 -11 73 73 NE 8 13 30.40 1030 3 4 0.00 0.00
9:53 am 09:53 Cloudy with Light Snow 20 -6.7 13 -10.6 74 74 NE 7 11 30.37 1029 3 4 0.00 0.00
10:09 am 10:09 Cloudy with Light Snow 20 -6.7 14 -10 78 78 NE 8 13 30.38 1029 4 6 0.00 0.00
10:53 am 10:53 Cloudy 21 -6.1 14 -10 74 74 NE 8 13 30.35 1028 10 16 0.00 0.00
11:53 am 11:53 Cloudy with Light Snow 22 -5.6 16 -8.9 78 78 NE 7 11 30.33 1027 8 13 0.00 0.00
12:44 pm 12:44 Cloudy with Light Snow 22 -5.6 16 -8.9 78 78 NE 7 11 30.33 1027 3 5 0.00 0.00
12:53 pm 12:53 Cloudy 22 -5.6 17 -8.3 82 82 NE 9 15 30.30 1026 4 6 0.00 0.00
1:04 pm 13:04 Cloudy with Light Snow 22 -5.6 17 -8.3 82 82 ENE 9 15 30.30 1026 4 6 0.00 0.00
1:53 pm 13:53 Cloudy with Light Snow 23 -5 18 -7.8 81 81 NE 9 15 30.24 1024 4 6 0.00 0.00
2:27 pm 14:27 Cloudy with Light Snow 23 -5 18 -7.8 81 81 NE 9 15 30.24 1024 5 8 0.00 0.00
2:53 pm 14:53 Cloudy with Light Snow 23 -5 18 -7.8 81 81 NE 6 9 30.21 1023 6 10 0.00 0.00
3:16 pm 15:16 Cloudy with Light Snow 23 -5 19 -7.2 85 85 NNE 9 15 30.26 1025 2 3 0.00 0.00
3:51 pm 15:51 Mostly Cloudy with Heavy Snow 21 -6 19 -7 93 93 NNE 7 11 30.24 1024 0 0 0.00 0.00
3:53 pm 15:53 Mostly Cloudy with Heavy Snow 22 -5.6 20 -6.7 92 92 NE 7 11 30.22 1023 0 0 0.00 0.00
4:29 pm 16:29 Mostly Cloudy with Heavy Snow 22 -5.6 20 -6.7 92 92 NNE 7 11 30.22 1023 1 1 0.00 0.00
4:53 pm 16:53 Cloudy with Heavy Snow 23 -5 19 -7.2 85 85 NNE 8 13 30.21 1023 1 1 0.00 0.00
5:11 pm 17:11 Cloudy with Snow 23 -5 19 -7.2 85 85 NNE 10 17 30.22 1023 1 1 0.00 0.00
5:35 pm 17:35 Cloudy with Light Snow 23 -5 19 -7.2 85 85 NNE 9 15 30.23 1024 1 2 0.00 0.00
6:24 pm 18:24 Cloudy with Light Snow 23 -5 19 -7.2 85 85 N 12 19 30.25 1024 3 5 0.00 0.00
6:53 pm 18:53 Cloudy with Light Snow 23 -5 18 -7.8 81 81 NNE 9 15 30.23 1024 3 5 0.00 0.00
7:53 pm 19:53 Cloudy with Light Snow 23 -5 18 -7.8 81 81 NNE 10 17 30.25 1024 5 8 0.00 0.00
8:53 pm 20:53 Cloudy 22 -5.6 18 -7.8 85 85 NE 7 11 30.25 1025 7 11 0.00 0.00
9:53 pm 21:53 Cloudy 23 -5 17 -8.3 78 78 NNE 10 17 30.26 1025 10 16 0.00 0.00
10:53 pm 22:53 Cloudy 23 -5 17 -8.3 78 78 NNE 9 15 30.26 1025 10 16 0.00 0.00
11:53 pm 23:53 Cloudy 23 -5 17 -8.3 78 78 NNE 8 13 30.26 1025 9 14 0.00 0.00

Powered by AerisWeather